Location: Milano
(45.4670°N, 9.2000°E)
Time: 06:25:03
(UTC+02:00)

X-37B - Pass Details

Date: 05 August 2021
Orbit: 381 x 393 km, 45.0° (Epoch: 29 August)

Event Time Altitude Azimuth Distance (km) Brightness Sun altitude
Exits shadow 03:20:29 11° 102° (ESE) 1,365 3.5 -22.7°
Drops below altitude 10° 03:20:35 10° 101° (E) 1,395 3.6 -22.7°
Sets 03:23:00 0° 83° (E) 2,251 5.0 -22.5°
